GFSFLT1_prec_cthk_054.txt.gz
RH
41 39 41 42 43 45 45 48 45 42 41 48 52 56 60 68 68 65 59 57 57 52 56 57 58 50 41 43 45 43 40 39
43 41 42 43 46 48 48 52 52 50 48 54 57 58 64 64 66 67 63 60 54 57 57 54 49 41 45 47 46 45 44 44
42 42 40 41 45 47 50 48 49 54 58 57 59 60 64 67 71 66 64 60 58 58 52 49 43 45 48 48 51 52 52 55
39 39 40 42 43 43 50 53 54 57 56 57 62 64 68 65 68 64 62 61 60 55 49 46 44 49 53 56 60 62 65 65
46 49 48 46 48 51 52 53 60 63 59 55 59 62 65 63 73 63 62 63 58 52 49 47 50 56 61 66 67 70 74 71
52 52 59 60 56 53 57 58 64 67 67 57 60 73 77 78 85 71 63 60 56 55 52 58 68 74 76 79 83 85 81 76
50 56 64 60 58 59 62 61 65 70 73 68 68 78 84 81 78 69 66 62 60 60 68 73 77 82 87 89 86 88 86 81
49 53 56 52 53 56 61 63 57 70 76 83 73 77 77 75 73 67 66 66 65 71 81 83 81 85 91 96 92 87 83 80
40 41 42 44 47 59 57 52 58 67 81 85 69 71 72 69 66 64 66 68 79 82 89 90 92 93 97 96 91 77 74 67
30 39 39 40 42 42 43 46 51 73 82 76 66 64 62 64 64 67 72 80 82 89 89 83 94 98 95 88 85 76 71 65
29 33 36 34 35 37 39 40 46 62 66 65 65 60 60 68 66 74 83 85 87 88 86 98 94 97 87 89 85 77 70 72
29 30 29 29 28 29 33 41 46 55 59 61 65 68 68 79 87 88 91 94 91 93 97 97 94 89 86 90 84 82 80 77
32 27 25 24 28 32 35 39 47 61 68 73 74 82 88 89 90 94 90 91 95 93 86 93 87 88 93 91 86 80 82 83
38 37 36 35 38 39 43 49 61 69 75 80 82 86 88 91 93 91 89 86 87 96 96 83 92 93 91 90 83 85 79 71
31 34 36 39 43 48 53 59 67 69 78 80 84 86 88 93 95 92 87 86 87 95 87 96 92 93 91 86 87 80 69 42
38 40 45 48 52 57 58 60 60 67 64 63 75 83 90 91 88 83 81 86 90 86 84 94 97 97 94 87 77 62 31 25
42 45 48 50 50 52 53 54 52 56 57 62 62 69 79 78 70 77 82 83 80 93 98 97 97 95 79 63 44 28 24 25
42 40 42 42 42 42 45 49 51 51 51 53 58 65 78 75 79 81 77 83 90 94 96 95 83 66 51 37 25 22 24 26
42 41 40 39 38 38 37 38 41 45 51 62 71 74 75 75 78 84 92 97 95 96 92 74 53 41 25 20 20 22 25 30

GFSFLT1_prec_cthk_057.txt.gz
RH
40 40 39 40 41 42 45 42 43 45 41 41 45 47 51 56 61 68 71 67 61 62 54 53 54 52 49 40 41 41 41 41
42 41 44 44 46 48 48 47 48 49 48 50 51 54 50 59 66 73 75 64 61 58 56 54 52 51 42 41 43 43 45 50
42 41 44 46 47 49 52 51 53 55 55 52 51 51 54 62 69 75 76 67 62 59 57 56 50 48 42 45 50 55 59 59
41 38 39 41 43 45 48 49 52 58 62 56 54 59 62 65 66 76 75 71 63 59 60 55 50 46 50 56 60 66 69 71
40 39 38 38 38 42 46 50 51 55 61 60 54 58 61 66 75 82 86 82 72 61 59 53 51 58 62 67 71 77 82 81
40 42 48 48 49 50 51 52 53 58 66 67 60 59 67 77 86 89 91 93 80 64 62 56 62 68 71 73 77 84 88 90
56 53 55 54 55 56 60 58 59 61 67 75 75 70 72 79 85 86 87 85 73 77 64 66 69 69 76 82 85 91 94 91
53 60 62 64 65 65 58 56 65 63 67 76 85 85 80 75 80 79 77 85 83 79 72 76 76 81 86 85 91 97 96 94
48 48 54 59 61 57 54 56 59 55 62 73 81 87 82 75 68 74 84 85 82 76 78 84 86 86 84 92 93 97 91 83
38 44 47 48 48 49 51 55 50 49 52 66 82 87 86 80 73 82 83 77 79 86 89 92 90 90 95 89 91 90 85 84
25 28 32 37 41 44 44 43 44 46 49 57 67 78 75 72 81 81 82 78 84 92 94 92 94 95 95 94 86 83 90 81
30 25 26 29 32 35 34 34 38 43 47 51 67 77 77 83 85 83 89 94 96 93 97 98 97 94 97 93 95 95 87 82
30 32 30 27 27 27 28 34 39 45 49 60 73 80 85 91 91 91 94 95 97 97 93 94 95 98 95 97 97 86 85 80
27 29 33 38 39 40 42 45 48 51 57 65 71 80 86 87 86 95 96 98 97 98 92 92 91 97 98 94 91 85 79 73
32 31 32 37 46 50 51 56 57 57 60 65 72 77 79 83 93 96 89 90 92 87 85 93 97 96 88 93 91 83 74 58
35 38 41 48 50 54 60 64 62 61 61 59 58 59 65 72 77 76 72 73 77 83 89 83 86 95 95 94 88 73 57 38
37 43 47 50 52 54 57 59 58 57 52 54 55 58 61 59 60 59 75 72 81 77 90 91 96 96 96 88 76 55 32 27
37 38 42 46 47 50 51 51 49 48 49 48 48 50 52 55 67 75 69 75 75 92 93 93 95 96 84 67 49 31 25 23
37 38 40 42 43 44 43 42 41 40 42 47 51 54 64 67 66 69 78 83 89 95 98 97 89 78 62 45 28 23 21 21

GFSFLT1_prec_cthk_063.txt.gz
RH
57 58 62 62 63 60 53 49 52 48 44 46 51 53 51 57 66 70 72 77 82 83 87 80 75 68 57 51 48 46 39 44
49 48 45 47 42 40 42 40 37 43 41 41 46 53 61 67 65 68 68 72 73 79 83 78 71 61 57 51 50 47 45 52
42 40 38 36 36 38 40 40 41 46 52 47 45 47 51 56 59 64 62 69 75 82 83 81 74 59 58 57 55 55 56 58
46 41 45 41 44 44 46 50 49 47 54 51 52 52 53 57 58 60 60 68 71 82 87 87 80 77 75 73 68 64 65 62
46 42 42 43 44 44 45 51 55 57 56 62 58 57 58 61 62 66 63 65 77 86 89 90 90 87 86 78 78 75 71 69
40 40 41 38 41 42 44 45 51 55 54 55 61 58 64 68 68 66 66 68 76 87 92 92 96 93 90 83 86 85 77 78
48 50 48 48 46 47 49 51 52 61 63 60 62 66 69 70 74 77 69 70 79 87 92 95 95 92 92 94 91 92 82 80
50 49 51 54 56 54 58 60 62 66 66 66 68 75 74 73 78 84 89 88 91 91 87 81 83 92 98 98 95 92 88 88
49 49 52 53 61 61 62 63 66 67 69 68 74 74 71 69 75 78 86 80 80 85 93 92 91 97 98 99 96 93 94 92
50 57 52 51 59 64 65 66 66 65 72 74 75 74 69 65 70 71 68 71 76 88 94 97 96 96 98 97 94 96 97 94
48 48 55 54 55 59 64 66 67 68 68 67 66 66 67 71 70 68 69 74 81 86 92 94 93 98 98 96 94 96 93 98
43 48 53 56 60 63 62 67 71 73 72 69 67 66 64 68 70 72 73 79 81 85 91 88 98 99 97 97 98 95 93 97
42 40 39 40 52 58 58 64 68 72 73 71 58 54 58 63 67 74 71 73 75 76 75 81 95 93 94 96 94 94 96 90
34 32 33 39 47 52 54 56 61 64 61 57 55 57 63 68 66 64 63 65 70 67 66 77 91 79 80 79 72 76 76 82
33 35 36 35 37 40 46 52 54 56 57 59 64 66 66 64 67 67 66 65 61 63 67 65 70 68 69 73 75 75 76 81
28 34 38 38 42 43 41 43 46 49 52 57 64 69 70 72 75 74 66 60 63 64 64 61 64 70 70 74 75 80 84 88
32 31 39 44 47 42 45 52 57 60 67 70 74 79 76 73 67 62 59 58 60 61 63 64 69 69 71 78 82 81 78 69
35 36 39 41 49 49 55 61 67 69 70 71 71 67 62 55 51 46 48 53 55 62 66 68 71 75 78 77 69 59 53 46
36 37 41 45 52 55 56 56 57 56 57 57 55 53 47 43 45 49 53 57 60 65 69 72 72 69 66 55 45 41 39 39

GFSFLT1_prec_cthk_066.txt.gz
RH
55 53 55 55 48 46 52 61 68 73 64 68 63 57 54 54 52 52 54 57 60 66 75 81 84 77 72 65 54 51 49 43
48 49 41 41 44 43 45 49 49 54 49 48 45 45 47 49 53 58 56 61 64 70 75 78 79 74 71 62 56 53 54 52
45 41 38 37 41 40 41 43 43 43 42 38 41 46 48 50 53 53 61 65 67 74 74 79 75 74 72 64 64 66 72 67
44 40 43 46 43 42 41 38 37 40 43 43 45 49 49 50 53 55 60 59 59 68 68 77 79 81 82 77 79 82 77 76
41 41 39 39 38 40 43 43 43 44 49 55 53 48 47 51 53 58 58 60 61 64 69 79 85 86 90 90 95 90 87 83
39 36 36 37 37 38 40 45 48 46 46 50 53 49 48 49 55 63 66 67 66 70 73 80 84 89 92 94 96 95 96 94
49 50 47 47 48 46 42 42 43 50 57 56 56 55 53 52 59 64 68 77 81 81 80 80 85 90 92 95 96 97 91 96
47 50 49 48 49 49 50 48 50 52 57 59 59 58 61 66 64 62 66 80 79 67 74 79 87 89 91 96 99 93 98 98
44 47 49 49 49 48 52 54 54 57 58 60 67 67 65 66 64 58 60 66 67 67 65 80 82 89 93 98 95 99 97 99
47 48 54 53 51 47 50 51 54 58 58 62 59 64 67 84 81 58 66 76 71 73 79 77 84 88 93 90 94 99 97 97
42 53 54 54 52 49 50 53 55 58 58 55 55 57 61 62 70 65 83 82 75 80 79 85 84 82 79 75 98 98 95 94
38 47 60 59 63 61 55 56 61 63 62 63 61 63 65 73 82 79 66 75 80 81 74 77 77 76 68 72 84 92 97 85
37 38 43 58 63 63 68 63 63 67 70 78 77 84 85 75 63 68 72 77 81 77 74 72 72 71 69 73 84 82 79 71
38 34 34 36 48 60 68 73 70 65 71 83 79 77 74 65 66 68 72 72 72 73 73 76 71 66 64 69 71 71 68 72
37 39 34 32 30 35 49 54 54 55 57 62 62 62 66 60 60 66 72 72 76 78 78 69 63 63 65 66 67 69 71 71
33 37 45 40 35 31 33 37 40 44 51 52 51 54 57 68 77 79 80 80 76 73 64 58 58 61 63 66 67 69 72 78
43 39 51 50 40 35 40 46 46 52 53 56 59 65 78 81 80 81 76 70 64 56 57 56 61 62 64 67 71 75 74 71
39 47 59 50 44 40 43 45 50 51 60 69 75 80 78 75 77 67 58 51 47 49 53 57 60 63 66 69 67 62 53 43
35 44 49 45 44 41 42 47 56 65 68 70 69 64 60 60 57 53 47 46 50 53 55 60 62 61 61 57 50 41 39 39

GFSFLT1_prec_cthk_069.txt.gz
RH
48 47 49 52 53 64 76 76 74 75 76 76 74 75 64 58 56 54 55 55 58 62 63 68 72 82 79 73 69 59 54 48
40 34 42 43 44 49 51 46 49 51 50 51 51 51 52 53 52 50 49 52 54 58 63 68 73 77 78 72 69 64 57 55
43 35 31 32 33 35 40 43 41 42 42 49 50 49 49 49 49 50 46 48 54 55 61 67 75 79 79 74 77 75 75 74
41 37 30 30 29 30 32 37 41 41 41 46 47 46 44 44 44 47 49 50 54 60 60 73 72 74 78 86 89 90 88 90
38 35 32 31 31 31 31 32 33 36 36 35 36 40 42 43 44 49 55 58 57 59 58 59 61 65 72 80 86 93 96 96
36 36 39 35 35 34 33 36 39 35 34 37 39 39 38 40 44 48 54 60 62 68 70 73 73 77 83 84 86 90 95 98
39 45 45 39 40 41 41 42 42 40 40 45 48 48 51 54 52 55 59 62 66 68 78 71 66 68 79 85 90 95 96 97
41 44 46 44 42 44 46 46 46 50 53 52 55 59 61 63 64 55 59 59 60 67 68 68 71 76 81 83 88 90 90 95
39 40 41 47 48 48 46 48 47 49 50 52 54 58 63 63 66 65 60 55 59 66 73 76 79 78 79 80 79 77 78 74
47 46 43 45 54 51 46 45 44 46 49 50 55 60 60 62 61 67 74 71 71 83 89 86 87 81 76 75 76 79 69 72
46 46 44 47 47 47 48 45 43 44 47 50 51 54 63 73 66 71 76 80 92 79 88 85 89 80 75 73 70 75 64 70
46 50 48 46 46 46 46 55 53 52 51 47 52 60 60 65 73 84 93 93 90 82 79 80 75 71 72 76 77 67 67 63
29 37 47 52 50 48 47 55 54 50 54 61 75 75 76 89 97 95 86 73 72 69 74 68 71 74 77 79 66 63 57 66
30 30 31 40 43 46 55 66 76 87 73 83 90 77 91 78 76 75 80 73 72 72 76 77 77 77 76 62 56 64 64 72
37 36 31 29 33 41 47 57 70 46 45 57 68 66 71 77 77 70 66 68 76 78 81 81 76 68 60 56 59 64 63 67
39 45 44 32 25 28 29 32 34 39 41 49 51 53 58 62 62 66 70 80 80 79 80 73 65 58 53 61 62 66 68 70
46 42 43 37 36 35 40 41 41 43 45 45 48 49 54 56 61 75 83 81 76 74 67 60 52 52 58 62 65 65 67 71
44 40 42 43 38 39 43 41 41 43 46 49 52 53 56 64 72 72 73 65 60 58 52 46 50 54 57 61 64 66 64 56
46 35 28 32 36 38 36 36 38 42 40 44 48 52 58 60 59 54 52 50 51 50 46 49 51 54 59 61 60 53 45 38

GFSFLT1_prec_cthk_072.txt.gz
RH
51 45 47 50 66 87 92 90 89 90 86 84 84 80 79 73 71 71 71 68 63 60 57 58 68 71 79 78 73 65 59 52
47 44 43 44 51 68 75 81 81 84 83 83 80 72 68 66 64 63 63 61 60 59 60 62 66 72 72 72 70 65 61 62
41 37 31 38 44 49 55 56 56 58 61 60 61 59 58 56 54 53 51 50 50 52 55 61 61 64 70 75 76 73 75 76
38 35 30 29 35 39 37 39 40 43 44 45 47 51 49 46 44 48 47 48 48 46 50 53 59 61 67 74 77 77 81 84
36 32 30 26 28 31 33 32 34 35 35 37 38 40 40 41 44 45 50 49 46 47 51 53 59 63 67 74 76 79 87 91
35 34 32 25 25 24 26 29 30 32 34 34 38 40 38 39 41 45 49 50 54 54 60 67 73 76 78 76 80 84 92 91
42 42 41 36 32 29 29 30 31 32 33 35 36 38 40 42 40 42 50 49 54 61 67 74 75 68 72 74 75 82 82 84
41 42 43 39 36 36 38 38 36 34 35 37 39 43 41 42 45 48 49 53 57 60 57 68 71 81 82 79 76 81 81 83
44 40 38 38 40 38 37 39 39 38 39 39 40 46 49 58 62 64 66 62 55 54 54 62 75 88 88 87 81 81 76 78
45 45 45 44 47 47 40 37 37 37 38 44 49 52 59 66 64 66 67 72 74 74 71 76 90 91 94 89 82 79 77 78
42 45 46 46 49 55 57 52 45 40 41 44 52 59 59 67 74 75 78 74 75 76 85 90 88 93 92 91 80 79 83 80
40 42 47 48 50 55 57 65 68 63 60 57 62 59 59 61 65 72 82 94 95 95 86 83 93 91 84 81 84 83 81 65
39 40 41 42 45 49 55 64 67 73 75 80 84 85 87 86 78 87 94 92 91 78 83 86 89 85 84 84 85 76 69 62
34 34 34 33 36 39 45 49 60 69 76 83 75 68 87 90 96 94 91 81 67 72 76 85 88 85 87 84 79 70 63 58
38 42 40 37 29 31 34 38 47 57 70 68 45 46 57 83 79 78 74 68 67 74 82 86 82 81 86 81 76 63 57 64
45 44 42 39 38 38 37 38 39 44 49 43 42 45 49 59 59 63 63 62 70 79 87 87 86 81 80 73 64 63 64 64
44 45 44 38 36 33 34 39 44 47 51 48 40 41 48 51 52 58 59 67 73 80 81 80 77 73 65 55 53 61 63 67
42 44 47 46 41 34 34 37 42 48 46 39 38 43 47 50 54 56 61 68 73 76 70 65 64 61 52 55 60 63 66 65
41 45 45 43 40 33 31 34 38 40 39 42 44 46 49 55 59 60 65 68 64 60 60 58 54 50 55 59 60 62 62 60

GFSFLT1_prec_cthk_075.txt.gz
RH
46 44 40 46 67 79 84 84 94 99 96 94 96 94 89 87 81 78 74 73 72 70 67 62 64 69 74 79 85 85 79 66
44 45 38 41 60 80 85 89 93 94 97 96 97 94 88 82 78 80 75 71 66 62 65 65 64 66 75 81 84 83 81 73
40 38 37 37 46 59 72 79 89 92 95 94 94 90 87 79 77 68 66 63 63 63 64 63 68 68 73 75 79 83 83 78
38 33 31 32 39 43 47 52 59 74 84 83 79 75 75 71 64 60 62 60 61 63 61 61 65 66 67 66 74 79 81 81
33 31 28 24 32 36 38 42 45 52 56 58 60 59 60 54 52 50 50 53 55 54 57 55 59 59 64 63 69 76 83 83
27 26 28 26 26 28 32 36 38 42 47 45 47 47 48 48 49 47 51 53 51 51 52 51 55 60 65 72 81 82 89 84
36 37 37 35 29 27 26 29 31 34 37 41 44 43 44 42 42 45 50 55 57 56 60 59 63 72 79 77 79 85 85 83
35 38 40 40 37 34 34 34 35 35 37 39 40 41 43 44 47 50 51 55 56 59 60 63 66 71 78 82 91 93 85 81
36 37 38 36 39 38 36 37 38 39 40 41 43 44 46 49 49 52 56 56 56 54 55 57 56 64 71 83 95 93 91 84
37 40 40 40 42 43 41 37 39 40 40 42 44 46 49 51 54 54 57 62 67 70 71 67 72 66 70 88 96 94 89 82
39 43 45 46 46 50 55 55 46 40 41 42 44 46 49 54 56 59 67 74 80 86 89 93 91 82 84 87 93 95 93 87
36 40 44 48 51 54 56 57 59 63 60 58 57 56 58 60 59 61 69 81 88 96 97 95 94 93 89 89 91 95 89 86
33 34 38 43 47 52 56 58 60 65 76 84 88 84 74 77 76 79 78 80 83 90 83 80 75 79 87 89 89 92 89 89
38 35 34 36 39 40 41 45 49 55 66 76 75 75 69 56 58 72 82 83 95 80 71 69 78 78 88 90 91 85 86 82
40 43 41 38 39 37 37 39 40 40 45 59 63 78 55 51 54 65 80 78 76 72 74 77 77 80 82 85 87 83 79 79
43 42 44 46 46 41 36 36 38 41 44 53 57 58 61 57 53 54 58 61 64 68 73 72 73 79 82 81 80 80 79 70
46 47 44 41 41 41 43 42 31 32 39 48 58 65 63 54 50 54 54 58 64 64 66 74 77 79 80 79 78 76 72 67
50 49 42 40 40 42 41 40 35 36 41 50 57 56 54 52 52 50 55 61 67 69 70 77 78 80 76 76 73 69 61 60
44 46 42 43 42 41 41 41 32 36 42 48 52 52 52 52 48 51 57 62 67 69 81 82 74 73 70 69 65 59 61 64